Regional Weather Roundup
Issued by NWS

Home | Current Version | Previous Version | Text Only | Print | Product List | Glossary On
Versions: 1 2 3 4 5 6 7 8 9 10 11 12 13 14 15 16 17 18 19 20 21 22 23 24 25 26 27 28 29 30 31 32 33 34 35 36 37 38 39 40 41 42 43 44 45 46 47 48 49 50
000
ASUS43 KLMK 201702
RWRKY
KENTUCKY REGIONAL WEATHER ROUNDUP
NATIONAL WEATHER SERVICE LOUISVILLE KY
100 PM EDT SUN APR 20 2014

NOTE "FAIR" INDICATES FEW OR NO CLOUDS BELOW 12,000 FEET
WITH NO SIGNIFICANT WEATHER AND/OR OBSTRUCTIONS TO VISIBILITY.

KYZ001>023-026-027-061>063-070>075-201800-
WESTERN AND SOUTH CENTRAL KENTUCKY

CITY           SKY/WX    TMP DP  RH WIND       PRES   REMARKS
PADUCAH        MOSUNNY   76  42  29 S5        30.20F
HENDERSON      MOSUNNY   73  43  33 SW5       30.21F
OWENSBORO      SUNNY     72  36  26 CALM      30.22F
HOPKINSVILLE   MOSUNNY   75  39  27 SW6       30.21F
BOWLING GREEN  SUNNY     72  40  31 CALM      30.22S
GLASGOW        NOT AVBL
$$

KYZ024-025-028>034-038-045-046-053-201800-
NORTH CENTRAL KENTUCKY

CITY           SKY/WX    TMP DP  RH WIND       PRES   REMARKS
LOUISVILLE/SDF MOSUNNY   75  41  29 VRB3      30.21F
LOUISVILLE/LOU SUNNY     74  41  30 SW5       30.22F
FORT KNOX      SUNNY     72  39  30 E5        30.20F
$$

KYZ035>037-039>044-047>052-055>060-089>105-201800-
NORTHEAST KENTUCKY

CITY           SKY/WX    TMP DP  RH WIND       PRES   REMARKS
LEXINGTON      SUNNY     72  39  30 CALM      30.24S
COVINGTON      MOSUNNY   70  34  26 S6        30.23F
FRANKFORT      SUNNY     72  35  25 N3        30.22F
$$

KYZ054-064>069-076>088-106>120-201800-
SOUTHEAST KENTUCKY

CITY           SKY/WX    TMP DP  RH WIND       PRES   REMARKS
JACKSON        SUNNY     71  36  27 SE9       30.24F
LONDON         SUNNY     73  39  29 MISG      30.24F
SOMERSET       NOT AVBL
MIDDLESBORO    NOT AVBL
MONTICELLO     SUNNY     73  41  31 CALM      30.24F
$$




USA.gov is the U.S. government's official web portal to all federal, state and local government web resources and services.